Tracking 28790 objects as of 19-Apr-2024
HD Live streaming from Space Station
objects crossing your sky now

STARLINK-1099

Track STARLINK-1099 now!
10-day predictions
STARLINK-1099 is classified as:


NORAD ID: 44918
Int'l Code: 2020-001E
Perigee: 390.3 km
Apogee: 396.1 km
Inclination: 53.1 °
Period: 92.3 minutes
Semi major axis: 6764 km
RCS: Unknown
Launch date: January 7, 2020
Source: United States (US)
Launch site: AIR FORCE EASTERN TEST RANGE (AFETR)
Your satellite tracking list
Your tracking list is empty




NASA's NSSDC Master Catalog

Two Line Element Set (TLE):
1 44918U 20001E   24109.38031717  .00076847  00000-0  91098-3 0  9997
2 44918  53.0512 153.0716 0004261 346.3858  13.7039 15.60558101237284
Source of the keplerian elements: AFSPC